sat.trackr.live / text

‹ back to catalog

STARLINK-33734

NORAD 63367 · 2025-063E

PAYLOAD ACTIVE UNKNOWN

§ Identity

Operator
Country
US
Launch date
2025-03-26
Launch site
AFWTR
Launch vehicle
Mass (kg)
RCS (m²)

Purposes: comms

External: N2YO · Heavens-Above · Gunter

§ Orbital elements

Epoch: 2026-05-25T04:55:38.047872Z

Period
94.10 min
Inclination
53.1577°
Eccentricity
0.0001090
Mean motion
15.30210554 rev/d
Perigee alt
474.4 km
Apogee alt
475.9 km
Semi-major
6,853.3 km
B*
5.1913e-4
RAAN
67.0266°
Arg perigee
84.5051°
Mean anomaly
275.6074°
Rev number
6,628

§ Raw data

STARLINK-337341 63367U 25063E   26145.20530148  .00015052  00000+0  51913-3 0  99962 63367  53.1577  67.0266 0001090  84.5051 275.6074 15.30210554 66284

JSON: /api/v1/satellites/63367 · /tle

For live sub-satellite position, see the globe view (requires WebGL).

§ Visibility from observer

Set your observer location to see the next 7 days of passes ≥ 10°. The values pass through the URL so the page stays shareable.

No JS? Fill the form by hand. The geolocation button needs JavaScript.